Independence, Wisconsin
Current Conditions -  °F | °C
As of 9:33 AM on Monday 22 Dec 2014 (Local Time) from KONA Reporting Station
Haze Haze  
Wind Chill: 28°   Ceiling: 1400
Heat Index: 36°   Visibility: 5mi
Dew Point: 32°   Wind: 12mph
Humidity: 87%   Direction: 140°SE
Pressure: 29.74"   Gusts: NA
Location:  44.36°N, 91.42°W
Report Text: KONA 221533Z AUTO 14010KT 5SM BR OVC014 02/00 A2974 RMK AO2
Loading
Personal Weather Stations






























Interactive Weather Map New forecast layout! Learn more

10-Day Weather Forecast

Advertisements
Track Severe Weather on mobile